Dewpoint
57 52 48 48 47 47 39 38 27 34 30 25 25 28 30 36 34 38 40 40 43 46 46 51 51 50 46 45 46 46 51 47 47 41 41 47 58 66 66 67 68 69 69 69 69 68 68 70 70 69 68 67 67 67 66 65 65 65 65 66 67 67 66 66 65 65 64 64 66 69 68 67 65 64 63 63 63 64 64 64 63 62 62 63 63 63 63 63 63 64 64 63 64 65 65 65 65
52 49 47 46 45 36 34 36 31 29 28 25 27 33 31 36 37 37 39 41 44 49 52 54 55 55 55 54 54 52 48 54 50 52 55 58 66 66 67 68 68 68 69 69 69 68 68 68 70 69 68 67 66 66 65 65 65 64 64 65 65 64 64 64 65 65 64 68 69 69 67 66 65 64 64 64 65 64 64 63 64 64 65 64 64 63 62 63 63 64 63 63 64 65 65 65 65
51 48 45 42 39 38 37 34 26 26 25 22 25 29 36 36 36 37 39 40 46 52 52 53 53 53 52 52 48 48 44 55 56 58 61 65 63 65 67 68 68 68 69 69 69 68 68 68 70 69 68 67 66 65 65 65 65 65 64 64 64 63 63 64 66 66 65 69 69 69 69 68 67 66 65 65 65 66 67 67 66 65 65 63 62 63 62 63 63 62 62 63 64 64 64 64 64
52 51 43 39 33 40 34 34 29 27 25 26 27 33 36 37 37 39 42 44 49 50 47 48 52 53 51 49 51 53 53 54 56 60 60 63 63 66 67 68 69 69 69 69 69 69 68 69 69 70 69 68 67 65 65 65 65 65 65 63 64 64 64 65 64 65 66 65 66 68 68 67 67 67 65 63 65 65 65 64 62 62 62 64 63 64 63 62 63 63 63 63 64 64 64 64 63
49 53 46 41 37 34 34 30 28 28 23 24 26 32 38 40 41 42 43 43 43 44 44 49 51 54 54 52 54 51 50 55 56 60 59 62 65 67 68 68 68 69 69 69 69 68 67 69 69 70 68 67 66 65 65 65 64 64 64 65 65 65 64 64 65 66 65 64 63 65 66 66 68 68 65 64 63 63 63 63 62 63 63 63 63 63 63 63 64 63 63 63 64 65 64 64 63
50 49 52 40 32 37 32 22 25 21 24 30 32 34 35 38 42 42 43 40 40 42 45 50 50 51 53 54 55 52 54 52 56 57 60 62 67 68 68 68 68 69 69 69 68 67 67 68 69 69 68 66 65 65 65 63 64 64 64 63 65 64 62 63 65 65 65 62 63 66 68 68 68 68 67 66 64 63 63 63 63 63 63 63 63 63 63 64 63 63 64 63 64 65 64 64 63
44 41 41 41 37 38 30 25 23 26 20 33 33 36 38 39 42 42 39 37 37 50 47 51 53 51 50 52 54 56 57 58 57 57 61 63 67 68 68 68 68 68 69 69 68 67 67 68 69 69 69 68 65 64 64 64 63 63 64 64 64 64 62 63 64 64 64 62 65 67 67 67 68 67 66 66 66 65 64 64 62 63 64 64 64 63 63 64 64 64 63 64 64 65 64 64 63
51 35 40 34 34 36 32 30 28 26 23 32 34 38 39 41 42 39 37 42 41 46 48 52 49 48 48 53 50 54 58 58 58 58 64 67 67 68 68 68 67 68 68 69 68 67 69 68 69 69 68 66 65 64 64 64 63 63 64 64 64 63 63 64 63 63 64 64 64 67 67 67 67 67 66 66 66 66 65 64 65 64 64 64 64 64 63 63 63 63 63 64 64 64 64 64 64
43 41 46 40 32 35 32 30 30 31 26 29 32 40 48 42 41 37 35 36 37 40 46 48 48 45 46 53 52 54 56 58 58 62 66 67 66 67 67 67 67 68 68 68 67 67 67 68 68 68 68 68 66 65 64 65 64 64 63 64 64 64 64 63 63 64 64 63 63 65 65 66 66 66 66 66 65 65 65 65 64 63 63 64 64 63 63 63 63 63 63 64 64 64 64 64 63
40 37 34 35 36 29 31 27 21 23 23 25 36 38 42 42 41 37 35 36 38 42 44 47 46 46 50 50 51 54 55 58 60 64 66 66 67 67 67 67 67 68 68 68 68 68 67 69 67 68 68 68 67 67 67 66 65 64 63 64 63 65 65 63 62 64 64 63 63 65 65 66 66 65 65 65 66 65 65 65 65 65 65 64 63 63 63 63 63 63 63 64 64 64 64 64 63
33 43 45 36 32 29 28 26 31 29 24 28 30 31 39 39 36 34 34 35 39 43 48 49 48 51 51 53 52 55 57 58 60 62 66 67 67 67 67 67 68 68 68 68 68 67 67 67 68 66 67 67 67 68 67 67 64 63 63 64 63 64 64 63 63 64 64 64 65 64 64 65 65 65 66 66 65 65 65 65 65 65 65 64 63 64 63 63 63 63 63 63 63 64 63 63 63
32 38 42 34 30 31 30 28 29 32 32 31 32 30 35 37 35 34 37 37 38 40 47 48 46 51 51 52 51 53 57 56 57 60 64 66 67 67 67 67 68 68 68 68 68 68 67 67 67 68 66 66 66 66 67 66 65 65 65 64 65 63 61 63 63 64 64 64 64 63 63 63 65 66 66 66 65 65 65 64 64 64 64 65 64 64 64 63 63 63 63 63 63 63 63 63 63
36 41 36 33 30 31 32 31 31 37 29 28 31 29 33 35 34 33 36 38 38 41 35 40 52 51 48 49 51 55 56 57 57 59 63 66 66 67 67 67 67 68 68 69 68 68 68 67 66 66 65 64 64 64 65 66 66 67 67 68 67 67 66 65 65 65 64 63 64 64 65 67 66 66 66 65 65 64 64 64 64 64 64 64 64 64 64 63 63 63 63 63 63 63 63 63 63
40 40 37 35 36 33 31 31 30 25 24 29 29 31 33 32 31 33 37 34 36 32 36 35 53 52 52 50 49 52 55 56 58 59 62 65 66 67 67 67 67 68 68 68 68 68 68 68 66 64 64 64 63 64 63 65 66 67 66 67 68 68 67 67 67 67 66 66 67 68 68 68 67 67 66 66 65 65 66 65 64 64 64 64 64 64 63 63 63 63 63 63 64 64 63 63 63
37 45 41 37 34 30 32 30 29 27 24 27 28 33 34 37 35 38 35 33 34 33 46 46 53 32 24 43 44 53 56 57 58 60 62 65 66 67 66 67 67 67 68 68 68 68 68 68 66 64 63 63 63 62 62 63 64 66 66 65 67 67 67 67 67 66 67 67 66 65 65 64 64 64 65 65 66 66 65 65 66 65 64 64 64 64 63 63 63 63 62 63 64 63 63 64 64
43 42 39 35 32 31 31 31 32 26 24 28 29 34 33 34 35 37 38 33 35 42 45 50 44 37 39 40 46 49 57 58 58 61 63 64 65 66 66 66 66 67 67 67 68 68 68 67 66 65 63 62 62 62 62 63 64 64 65 65 66 66 66 66 65 65 64 64 63 63 62 61 61 61 61 61 63 63 63 62 64 65 63 63 63 63 63 62 62 62 62 63 63 63 63 63 62
48 42 31 33 30 31 32 32 30 28 32 29 28 32 32 33 34 36 38 41 40 41 47 47 47 53 51 47 50 54 57 58 60 62 63 63 64 64 64 65 65 66 66 67 67 67 67 67 66 65 63 62 62 62 63 63 64 63 63 63 64 64 65 64 64 62 61 60 59 59 60 60 61 61 61 61 60 61 59 61 63 65 63 63 63 63 63 63 62 63 62 62 64 64 61 60 59
42 38 36 32 35 32 35 32 31 31 25 24 27 30 32 32 33 36 40 41 44 45 47 48 51 53 52 53 55 56 57 58 60 61 62 62 63 62 63 64 64 64 65 66 67 67 67 66 65 64 63 62 62 62 63 64 64 64 63 64 64 64 63 62 62 61 62 60 58 60 61 60 60 60 60 61 61 62 61 60 61 64 65 65 64 63 63 63 63 62 63 63 64 62 59 56 55
39 37 37 36 36 36 38 34 33 30 33 25 28 32 33 33 35 35 37 36 43 43 44 47 49 51 53 55 56 57 57 57 58 59 60 60 61 62 62 62 63 64 64 65 66 66 67 66 65 64 63 62 62 61 64 65 64 63 62 63 64 62 64 63 63 61 60 60 60 60 60 60 60 60 60 60 60 58 60 60 62 62 63 63 64 64 64 64 64 65 65 65 63 60 57 55 55
39 39 37 38 40 38 38 35 33 31 31 29 28 28 32 32 36 34 36 36 41 41 40 43 46 48 50 54 55 56 56 56 57 57 59 60 61 61 62 62 62 63 64 64 65 66 67 66 65 65 63 62 62 61 64 65 65 64 64 64 64 63 62 63 63 60 59 59 59 59 59 59 59 59 60 60 60 59 59 59 59 61 61 61 60 60 60 60 60 61 61 61 59 56 55 55 55
37 37 38 40 39 39 40 36 33 30 28 29 28 30 31 29 34 35 33 36 37 39 40 40 41 48 50 53 55 55 56 56 56 56 57 58 61 61 62 62 62 63 64 64 64 65 66 66 65 64 64 62 62 61 63 65 65 65 65 65 65 63 62 62 62 62 61 60 59 58 58 58 58 58 58 58 57 57 58 58 59 59 59 59 58 58 57 55 54 53 53 53 52 54 54 54 54
39 36 38 38 38 39 39 36 32 26 27 25 27 27 28 30 31 32 35 34 34 36 38 41 41 46 52 54 55 55 55 55 55 56 56 57 59 60 61 62 62 63 63 63 64 64 66 66 65 65 64 63 62 62 63 65 65 64 64 64 64 64 62 62 62 62 62 61 60 58 58 58 58 58 57 56 56 56 57 57 57 58 58 58 58 57 56 55 53 51 52 52 51 52 53 52 53
37 39 38 38 37 37 37 34 29 24 24 25 26 28 28 30 29 30 35 34 33 35 37 38 41 47 54 56 55 55 55 55 55 56 56 56 57 58 60 61 61 61 62 62 63 64 65 65 65 64 64 64 63 62 63 64 64 64 64 64 64 63 63 62 61 61 61 61 60 59 59 58 58 58 57 56 55 55 55 55 55 56 56 57 57 56 56 54 53 52 52 51 51 52 53 51 52
39 38 39 38 39 36 33 32 27 24 24 24 26 28 28 27 28 29 33 34 33 31 28 28 39 54 55 55 55 56 56 56 56 56 56 57 57 58 58 59 60 61 61 62 63 64 64 65 65 64 64 64 63 63 63 63 64 64 64 63 63 63 63 62 62 61 61 60 59 59 59 59 58 58 57 56 55 54 54 54 54 54 54 55 56 55 54 53 53 52 52 51 51 50 51 52 53
40 39 40 39 39 39 39 29 26 26 24 32 29 26 26 27 27 27 29 31 32 31 43 46 53 54 54 55 55 55 55 55 55 56 56 57 56 56 56 57 58 58 59 60 62 63 64 64 65 64 64 63 64 63 63 63 63 63 63 62 62 62 62 62 62 61 60 59 58 59 58 59 58 58 57 57 56 54 54 54 54 53 53 53 54 54 54 53 52 52 52 52 51 51 51 53 52
40 40 40 39 38 38 36 39 35 27 29 30 26 26 26 29 33 31 27 27 28 29 45 51 52 54 54 55 55 55 55 55 56 55 56 56 55 55 56 56 57 58 59 59 60 61 63 64 65 64 64 63 63 63 63 62 63 62 63 62 62 61 61 62 62 61 60 58 57 57 58 59 59 58 58 58 56 55 54 53 53 53 54 54 53 53 52 52 52 52 52 52 52 51 52 54 52
40 41 40 40 40 35 30 38 33 30 30 30 24 25 26 33 30 25 33 32 32 29 40 51 53 53 54 55 55 55 55 55 56 56 54 55 55 56 56 56 56 58 58 58 59 60 61 63 64 64 64 62 63 63 63 62 62 62 62 62 62 61 61 61 61 61 60 59 58 57 58 57 58 58 58 58 57 56 53 53 53 53 53 54 54 53 51 53 53 54 54 53 53 52 53 52 52
39 39 39 39 39 39 30 31 29 32 33 30 26 25 31 34 33 27 32 35 31 29 36 49 51 52 54 54 55 55 55 56 56 55 55 55 56 56 56 56 56 57 57 58 58 59 60 62 63 64 64 63 62 62 62 62 62 62 62 62 61 61 61 60 60 60 59 59 58 57 58 58 57 57 58 57 56 55 54 54 54 53 54 53 54 54 53 53 53 53 52 52 52 52 53 53 51
39 39 37 38 38 38 38 37 31 32 33 31 28 28 27 31 27 31 33 32 34 32 30 43 50 52 53 54 55 55 56 56 56 56 56 56 57 57 57 57 57 57 57 58 58 57 59 60 62 63 64 63 62 62 62 61 61 61 61 61 61 61 60 59 59 59 59 58 58 58 57 58 57 57 57 57 56 56 55 55 54 55 55 55 55 54 53 52 52 52 53 52 52 51 52 53 53
39 38 38 37 37 36 37 32 33 31 31 32 32 33 30 28 28 33 34 36 32 33 33 32 42 49 51 53 54 55 56 55 55 56 56 56 57 57 57 57 57 57 57 57 57 57 58 59 61 62 62 63 62 62 61 61 61 61 60 61 60 60 60 59 59 59 59 58 58 58 57 57 57 57 57 56 56 56 55 55 55 55 56 55 55 54 54 53 54 53 54 52 54 53 53 53 52
37 38 38 36 35 35 36 32 32 32 34 33 32 32 33 33 32 32 33 35 32 31 31 32 32 38 46 50 53 54 55 56 56 56 56 57 57 57 57 57 57 57 57 56 57 57 57 58 59 61 61 61 61 61 61 61 61 60 60 60 60 60 60 59 59 59 59 59 58 58 58 57 57 57 57 57 56 56 56 56 55 56 56 55 54 54 55 54 54 55 53 53 52 52 52 52 52
37 36 35 33 35 36 36 34 31 34 31 35 31 30 31 33 33 33 36 36 35 33 33 33 33 31 34 41 47 52 54 55 56 56 57 57 57 57 57 57 57 57 56 56 57 57 57 57 58 59 60 60 61 61 61 61 61 61 60 60 60 60 60 59 59 59 59 59 58 58 58 58 57 57 57 57 56 56 56 56 56 56 56 55 55 55 54 55 55 54 54 54 53 53 53 53 51
36 37 32 34 32 34 35 34 31 33 34 35 31 30 31 32 34 37 37 37 36 34 34 34 34 34 33 32 33 39 45 49 54 56 57 57 57 57 57 57 57 57 57 56 56 56 56 57 57 58 59 59 60 60 61 61 61 60 60 60 59 59 60 60 60 59 59 59 58 59 58 58 57 57 57 56 57 56 56 56 56 56 55 56 56 55 55 56 55 55 54 53 54 55 53 53 52
37 35 36 32 34 33 34 35 35 34 32 31 34 31 32 34 36 37 37 38 37 36 35 35 35 35 35 34 32 32 33 36 41 49 55 57 57 58 58 57 57 57 57 56 56 56 56 56 57 57 58 59 59 60 60 61 60 60 60 59 58 59 59 59 59 59 59 59 58 58 58 58 57 57 57 57 57 57 57 56 56 56 56 56 56 56 56 56 55 55 55 53 53 54 53 52 52
36 33 33 34 33 34 35 36 37 31 32 31 32 33 32 33 33 34 35 36 37 37 37 37 37 37 37 36 34 32 32 32 33 36 45 53 57 58 58 58 58 58 57 57 56 56 56 56 56 57 57 58 58 59 59 60 59 59 59 58 58 58 58 59 59 59 59 59 58 58 58 58 57 57 57 57 57 57 56 56 56 56 56 56 56 56 56 55 54 54 55 55 51 53 54 53 53
37 36 35 33 34 33 34 36 37 31 30 31 32 31 32 33 34 34 34 36 36 36 36 36 36 36 37 37 37 35 33 33 33 34 36 44 53 57 58 58 58 58 58 57 56 56 55 56 56 57 57 57 58 58 58 58 58 58 57 57 57 57 58 58 58 59 59 59 58 58 58 58 58 58 58 57 57 57 57 57 56 56 57 57 56 56 55 55 55 54 54 54 53 50 49 50 50
37 36 35 35 35 35 36 36 37 35 30 30 31 31 32 32 33 34 35 35 36 36 36 37 37 37 37 36 35 36 36 35 37 38 38 39 45 52 56 58 58 58 58 57 56 56 55 55 56 56 57 57 57 57 57 57 57 57 57 57 57 57 57 58 57 58 58 59 59 58 58 58 58 58 58 58 57 57 57 57 57 57 57 57 57 56 56 56 56 55 55 53 54 51 51 49 49
37 36 35 35 36 36 36 36 38 38 31 33 34 32 32 32 33 33 34 35 35 36 36 36 36 37 37 37 37 37 36 38 39 38 37 39 39 45 52 56 56 57 58 58 57 56 56 55 56 56 57 57 57 57 57 57 57 57 57 57 57 57 57 57 57 58 58 58 59 58 58 58 58 58 57 58 58 57 57 57 57 57 57 57 57 57 56 54 55 54 53 51 50 53 52 51 51
36 36 35 33 35 34 36 37 37 37 34 34 35 35 36 36 35 36 35 35 35 36 36 36 36 37 37 38 38 38 37 36 35 35 37 37 40 42 46 52 56 57 58 58 58 56 56 55 56 56 57 57 57 57 57 57 57 57 57 57 57 57 58 58 58 58 58 58 59 58 59 59 58 58 58 57 58 58 58 58 57 57 57 57 56 56 56 55 55 55 54 55 52 50 52 50 52
37 35 35 35 33 35 34 36 36 36 36 34 33 34 35 36 37 37 38 37 37 37 37 37 38 37 38 38 38 39 39 38 36 35 34 35 37 38 42 47 51 55 57 57 58 57 56 55 55 56 56 57 57 57 56 57 57 57 57 57 57 58 57 57 58 58 58 58 58 59 59 59 58 58 58 58 57 58 58 58 58 57 57 57 57 57 56 56 55 55 55 54 54 54 52 52 52
36 37 34 33 34 35 36 35 35 35 35 33 34 35 36 36 36 36 37 38 38 38 38 38 38 39 39 40 40 40 39 39 39 38 37 36 35 36 39 43 48 52 55 56 57 57 57 56 56 56 56 57 57 57 57 57 57 57 57 54 54 54 54 54 55 57 57 57 57 58 58 58 58 58 58 58 57 57 58 58 57 57 57 57 57 57 57 57 56 56 55 55 54 55 54 51 51
36 36 37 36 36 35 35 33 35 33 33 33 32 32 31 32 36 36 36 37 37 37 37 37 38 38 38 38 38 39 41 41 40 39 40 40 39 37 38 41 47 50 52 55 57 57 57 57 56 56 56 56 57 57 57 57 57 57 56 56 56 56 56 56 56 56 57 57 57 57 58 58 58 58 58 58 58 57 57 57 57 57 57 57 57 58 57 57 56 56 55 56 55 55 56 53 52
36 36 38 37 37 36 35 33 35 31 32 33 33 32 30 29 31 34 35 35 35 36 36 37 37 37 37 38 38 38 39 39 40 40 40 40 40 39 38 39 44 47 50 53 56 57 57 57 57 56 56 56 57 57 57 57 57 57 57 56 56 56 56 56 57 57 57 57 57 57 58 58 58 58 58 58 58 58 57 57 57 57 57 58 57 58 58 57 57 57 56 56 56 55 54 54 53
37 39 39 38 37 37 35 35 36 32 31 33 33 32 31 32 33 33 34 33 33 34 36 36 36 36 37 37 38 38 39 39 39 40 40 40 40 39 38 37 39 44 47 51 54 56 57 57 57 57 56 55 56 57 57 57 57 57 57 56 56 56 56 56 56 57 56 56 57 57 58 58 58 58 58 58 58 58 58 57 57 57 57 57 57 58 58 58 58 57 56 56 56 56 55 55 54
37 38 39 38 38 36 35 36 33 33 33 34 31 31 31 31 31 33 33 32 32 33 34 35 36 36 37 37 37 38 38 39 39 40 40 40 40 40 39 39 38 41 45 49 52 54 56 57 57 57 57 56 56 56 57 57 56 57 57 57 56 56 56 56 56 56 56 56 56 57 57 58 58 58 58 58 58 58 57 58 58 57 57 57 56 57 58 58 58 57 56 56 56 56 56 55 55
37 40 39 38 37 35 37 35 36 33 32 32 33 33 31 29 29 29 31 32 30 30 32 34 35 35 36 36 37 37 37 38 39 39 40 40 41 41 41 40 38 39 42 47 50 53 55 56 57 57 57 57 56 56 56 57 57 56 56 56 56 56 56 56 56 55 55 56 56 56 57 57 58 58 57 57 57 57 58 57 57 57 57 57 56 57 57 57 57 57 57 56 56 56 56 55 55
41 42 39 36 32 32 31 33 33 32 32 32 33 34 32 28 25 25 31 32 31 32 32 33 34 35 35 36 36 37 37 37 38 38 38 39 39 40 40 40 39 38 40 45 49 52 54 56 57 57 57 58 57 56 56 56 57 56 56 56 56 56 56 56 55 55 55 54 55 56 56 57 57 57 57 57 57 57 57 57 57 58 58 57 56 57 57 57 57 57 57 56 56 56 56 56 54
41 35 36 39 35 35 36 33 34 33 31 34 34 33 34 29 27 29 31 33 33 32 31 32 33 34 35 36 36 36 36 36 37 37 37 37 37 38 39 39 39 39 39 42 47 51 53 55 56 56 57 57 58 57 56 56 57 57 56 56 56 56 56 56 56 55 55 55 55 55 56 56 56 56 57 57 57 57 57 57 57 57 57 57 57 57 57 57 57 57 57 57 57 56 56 55 55
41 40 38 34 30 34 30 34 30 31 29 31 34 35 33 33 31 30 32 33 34 34 33 33 33 34 35 36 36 37 38 37 37 36 36 37 37 37 38 38 38 38 38 39 44 49 52 54 55 56 56 57 58 57 57 56 56 56 56 56 56 56 56 56 56 56 56 55 55 55 55 55 55 55 56 56 56 56 56 56 57 57 57 57 57 57 57 57 57 57 57 57 57 56 56 56 56
41 39 36 32 29 29 26 31 32 31 33 33 31 34 32 33 32 34 34 34 34 35 35 35 35 35 35 36 37 35 35 34 35 36 36 36 36 37 37 38 38 39 38 39 41 47 50 53 54 55 56 57 57 58 57 56 56 56 56 56 56 56 56 56 56 56 56 56 55 55 55 55 55 55 55 55 56 56 56 56 56 57 57 57 57 57 57 57 57 57 57 57 56 57 57 56 56
41 40 37 33 30 29 25 26 26 28 28 28 31 28 27 30 30 30 33 34 35 35 35 35 36 36 36 36 35 34 34 34 35 35 36 37 38 38 38 39 39 39 39 39 40 44 49 51 53 54 55 56 57 57 57 57 57 56 56 56 56 56 56 56 56 56 56 56 56 55 55 55 55 55 55 55 55 56 56 56 56 56 57 57 56 56 56 57 56 56 56 56 56 57 56 56 56
41 40 39 35 31 32 26 22 25 27 27 25 28 29 29 26 29 33 33 31 33 33 32 34 34 35 35 34 34 34 34 34 35 35 36 36 37 38 38 39 39 40 40 39 40 42 47 50 52 54 55 56 56 57 57 57 57 57 56 56 56 56 55 56 56 56 56 56 56 55 55 55 55 55 55 55 55 55 56 56 56 56 56 56 56 56 56 56 56 56 57 56 56 56 57 56 57
39 40 36 36 36 33 28 26 25 23 23 25 24 30 30 31 30 30 30 32 33 34 34 32 32 34 35 35 35 35 35 36 35 35 35 35 36 36 37 38 39 40 40 40 40 41 45 48 51 53 54 55 56 56 57 58 58 57 57 56 56 56 56 56 56 56 56 56 56 55 55 55 55 55 55 54 55 55 56 56 56 57 56 57 56 56 56 56 56 56 56 57 56 56 57 57 57
40 36 38 41 41 37 30 26 24 23 23 20 27 26 26 24 23 28 28 26 27 31 33 33 32 34 34 36 37 37 37 37 36 36 35 35 35 35 36 37 38 39 40 40 40 41 44 47 50 52 53 54 55 56 56 57 57 57 57 57 57 56 56 56 56 56 56 56 56 56 55 55 55 55 55 55 55 55 55 53 56 56 57 57 57 57 56 56 56 56 57 57 57 57 57 58 58
39 37 43 37 33 32 33 31 25 23 23 22 24 25 24 24 23 23 24 28 28 28 31 33 32 31 32 34 35 36 36 37 36 36 36 36 36 36 35 35 36 38 40 40 40 40 43 46 49 51 52 53 54 55 56 57 57 58 58 58 57 57 57 56 56 56 56 56 56 56 56 56 56 55 54 55 55 55 55 55 56 56 56 57 57 57 57 57 58 58 58 58 58 58 58 58 58
43 43 41 40 38 34 32 31 29 28 24 20 23 24 23 26 24 24 23 23 29 30 31 32 32 31 31 32 33 34 34 34 35 35 36 36 36 35 34 34 35 36 37 38 38 37 40 44 47 49 51 51 52 53 55 56 57 57 57 58 58 58 57 58 57 57 57 56 56 56 56 56 56 55 55 55 55 55 55 55 55 56 56 56 57 57 58 58 59 59 59 58 58 58 58 58 58
39 39 38 38 35 38 37 34 33 30 27 25 22 23 23 25 25 25 25 25 27 30 31 33 32 32 32 31 32 32 32 32 33 34 34 34 34 33 33 33 35 34 33 34 36 38 39 39 44 47 49 50 51 52 53 55 55 56 56 57 57 58 58 58 58 58 57 57 57 56 57 57 56 56 56 55 55 56 55 55 55 55 56 56 57 57 58 59 59 59 59 59 58 58 57 57 57
39 39 38 39 36 34 31 28 34 33 30 26 25 24 26 26 28 24 25 25 27 31 31 32 33 32 32 33 33 32 33 33 33 33 33 33 33 33 34 33 32 32 35 34 35 35 36 38 41 43 45 48 50 51 52 53 53 54 55 56 56 56 57 57 57 58 57 58 58 58 57 56 56 57 56 55 55 56 55 56 56 56 56 57 58 58 59 59 59 58 58 59 58 58 57 57 57